Погода в Марийце

Россия / Республика Марий Эл     56°30′59″N   49°50′00″E
темп.,
°C
ветер,
м/с
пор.,
м/с
влажн.,
%
обл.,
%
осадки,
мм/ч
давл.,
гПа
погр.,
м
6 мая, чт
чт600:00+3з411885 0.0 1010464
03:00+2зюз39969 0.0 1012264
06:00+5з3784100 0.0 1013342
09:00+6зюз2573100 0.0 1015448
12:00+12юз356059 0.0 10151219
15:00+15юз565614 0.0 10141167
18:00+14ю377484 0.1 1014217
21:00+10ю41085100 0.1 1014185
7 мая, пт
пт700:00+9ю4118873 0.0 1014214
03:00+9ю41283100 0.0 1015271
06:00+11ю51373100 0.0 1015427
09:00+15ююз71257100 0.0 1014847
12:00+17ююз81248100 0.0 10142134
15:00+17ю81152100 0.1 10131836
18:00+15ю71256100 0.0 1013973
21:00+10зсз4793100 0.6 1015394
8 мая, сб
сб800:00+8сз2689100 0.6 1017404
03:00+6с2694100 0.6 1018215
06:00+8св3583100 0.0 1019277
09:00+10всв4568100 0.0 1019657
12:00+11вюв347113 0.0 1018521
15:00+15ююв466183 0.0 10161353
18:00+15ю37660 0.0 1015456
21:00+11юв41183100 0.0 1014236
9 мая, вс
вс900:00+11ююв51476100 0.0 1014374
03:00+12ююв61572100 0.0 1013447
06:00+13ююв61469100 0.0 1013616
09:00+16ююз61061100 0.0 1013839
12:00+15ю41070100 0.3 1014682
15:00+17юз4659100 0.3 10141223
18:00+11сз5882100 0.1 1017446
21:00+9ссз4892100 1.4 1019524
10 мая, пн
пн1000:00+8ссз4793100 2.9 1019529
03:00+7ссз5993100 6.4 1021544
06:00+6с3892100 0.4 1023544
09:00+9ссз4575100 0.4 1025855
12:00+9ссз4571100 0.1 10271084
15:00+10с576398 0.1 10281221
18:00+11св12655 0.0 102892
21:00+6з11775 0.0 103010